World > North America > United States > Texas

Terrell, Texas Regional Weather

Lat: 32.73N, Lon: 96.29W
Wx Zone: TXZ121Web Search
Terrell Weather Warning NWS WEATHER ALERT FOR THE TERRELL, TX AREA - Issued: 337 AM CDT Sun Apr 11 2021 Terrell Weather Warning  

Helpful Tip: Abbreviated, 7 Day, 14 Day Forecasts. There is a weather forecast for every taste.

Feedback


°F Click to change Terrell hourly weather to Imperial units.Click to change Terrell hourly weather to Metric units. °C
Terrell Weather Map
UTC Time: 4/11/2021, 16:02
Your Time:

Terrell, TX Regional Weather

Expires:202104111700;;390470
ASUS44 KFWD 111601
RWRTX 
NORTH TEXAS HOURLY WEATHER ROUNDUP
NATIONAL WEATHER SERVICE FORT WORTH TX
1100 AM CDT SUN APR 11 2021

NOTE: "FAIR" INDICATES FEW OR NO CLOUDS BELOW 12,000 FEET WITH NO
SIGNIFICANT WEATHER AND/OR OBSTRUCTIONS TO VISIBILITY.


TXZ091>094-102>105-117-120-121-131>134-111700-
NORTH CENTRAL TEXAS
  
CITY           SKY/WX    TMP DP  RH WIND       PRES   REMARKS
SHRMAN/DENISON SUNNY     68  41  37 S16       29.79S                  
BOWIE          FAIR      71  37  29 S10G18    29.77S                  
DECATUR        FAIR      69  37  30 S10       29.78S                  
DENTON         FAIR      71  40  32 SW10      29.79S                  
MCKINNEY       FAIR      71  40  32 S13       29.79S                  
BONHAM         FAIR      70  44  39 S12       29.79S                  
GREENVILLE     FAIR      70  43  37 S14       29.80S                  
ROCKWALL       FAIR      68  43  40 S8        29.80S                  
TERRELL        FAIR      69  45  41 S9        29.80S                  
WAXAHACHIE     FAIR      70  45  39 S8        29.81S                  
CLEBURNE       SUNNY     70  41  35 S12       29.80F                  
GRANBURY       FAIR      73  37  27 S10       29.79F                  
$$


SKY/WX - Weather  TMP - Temperature  DP - Dew Point  RH - Relative Humidity
WIND - Wind Direction/Speed PRES - Barometric Pressure VSB - Visibility
WCI - Wind Chill Index E13G22 Wind - East Wind 13 mph/Gusts of 22 mph